Вернуться в каталог

DELTA 1 DEB

LostSSO
NORAD 20051·DEBRIS·🇺🇸 United States

Запущен Jul 29, 1976 с Vandenberg Space Force Base

Loading…

Ближайшие Пролёты (ближайшие 24 часа)

TLE

УстаревшееSource: Space-Track

Эпоха: Jun 1, 2026, 08:56 UTC

1 20051U 76077FN  26152.37280782 -.00000008  00000-0  35113-3 0  9993
2 20051 102.5492 107.4693 0154957  58.9010  91.5359 12.14755417615930

Отслеживайте DELTA 1 DEB в реальном времени с AllMySat

Download on the App Store